Погода в Маньковке

Украина / Черкасская область     48˚57′41″N   30˚20′31″E
темп.,
°C
ветер,
м/с
пор.,
м/с
влажн.,
%
обл.,
%
осадки,
мм/ч
давл.,
гПа
погр.,
м
6 декабря, вс
вс623:00−3˚вюв410890 0.0 1031322
02:00−3˚вюв510810 0.0 1032342
05:00−4˚вюв510680 0.0 1032341
08:00−5˚вюв510670 0.0 1032332
11:00−2˚вюв69560 0.0 1033426
14:00−1˚вюв510540 0.0 1032457
17:00−4˚в512650 0.0 1032407
20:00−5˚вюв512660 0.0 1032415
7 декабря, пн
пн723:00−5˚вюв511760 0.0 1032406
02:00−6˚вюв510750 0.0 1032419
05:00−7˚вюв510770 0.0 1031416
08:00−8˚вюв611770 0.0 1031400
11:00−5˚в711670 0.0 1030493
14:00−4˚вюв712672 0.0 1029620
17:00−5˚в612807 0.0 1029508
20:00−3˚вюв6126752 0.1 1028628
8 декабря, вт
вт823:00−4˚вюв6126890 0.0 1028526
02:00−6˚в6126753 0.0 1027496
05:00−6˚в511750 0.0 1027504
08:00−7˚в512802 0.0 1027545
11:00−5˚вюв697289 0.0 1027647
14:00−4˚вюв587594 0.0 1026645
17:00−4˚в5983100 0.0 1026473
20:00−3˚в51074100 0.0 1027535
9 декабря, ср
ср923:00−5˚в498313 0.0 1026347
02:00−5˚в597945 0.0 1027391
05:00−5˚в5107674 0.0 1026370
08:00−5˚в5107987 0.0 1026395
11:00−5˚в5993100 1.2 1026368
14:00−4˚в6990100 1.9 1025350
17:00−3˚в51087100 0.0 1025382
20:00−2˚вюв51188100 0.1 1025375
10 декабря, чт
чт1023:00−2˚вюв51187100 0.0 1025388
02:00−1˚вюв51089100 0.0 1025358
05:00−1˚вюв61194100 0.0 1023363
08:00+1˚вюв61396100 0.1 1023389
11:00+2˚юв61396100 0.0 1023423
14:00+3˚вюв71495100 0.1 1023488
17:00+2˚вюв71394100 0.1 1023477
20:00+1˚вюв71394100 0.2 1023474